TRANSIT 5B-1 DEB, 2097

Orbit data source: Space-Track

TRANSIT 5B-1 DEB, 2097 is space debris in LEO originally from a launch on Sat, 28 Sep 1963 UTC launched from the Air Force Western Test Range (AFWTR). Debris objects in space refer to the collection of defunct objects orbiting the Earth. Examples of debris include non-operational satellites, rocket bodies, and fragments generated from explosions, collisions, or faulty payload assembly.

Loading next visibility...
Identifier
2097, 1963-038G
Orbit
LEO
Country
Flag of USUS
Related business
Manufacturer
Unknown
Mission
Spacecraft
Bus & Motor
Unknown
Mass
Unknown
Launch date (UTC)
1963-09-28 (63 years ago)
Launch vehicle
Unknown
Launch site
Air Force Western Test Range (AFWTR)
Object type
Payload
Rocket body
Debris
Shape & HBR
Unknown shape, 0.1 m
Radar Cross Section
Small (<0.1 m²)

Expand to show TLE details & history
Last TLE update: 16 hours ago

TLE from 16 hours ago
0 TRANSIT 5B-1 DEB
1 02097U 63038G   26112.09964922  .00000506  00000-0  59613-3 0  9999
2 02097  89.9990 338.1886 0040474   4.5058 147.9160 13.66398703 91961
Epoch: 2026-04-22T02:23Z
TLE epoch observation values (Epoch: 2026-04-22T02:23:29.692Z)
Latitude
27.3695°
Longitude
-87.85157°
Altitude
1,041.336 km
Speed
7.321 km/s
True Right ascension
10h 32m 45s
True Declination
27° 14' 05"
Sunlit
Object was in daylight at epoch
Visualization orbit readout
Latitude
Unknown
Longitude
Unknown
Altitude
Unknown
Speed
Unknown
Apparent Right ascension
Unknown
Apparent Declination
Unknown
Sunlit
N/A
Visualization observer readout
Local Sidereal Time
01:09:03
Azimuth
Unknown
Elevation
Unknown
Doppler factor
Unknown
Orbital elements
Apogee altitude
1,039.455 km
Perigee altitude
979.653 km
Semi-major axis
7,387.691 km
Eccentricity
0.00405
Inclination
89.999°
RAAN
338.1886°
Arg. of periapsis
4.5058°
True anomaly
148.1613°
Mean anomaly
147.916°
Eccentric anomaly
148.03875°
Mean motion
3.41806 °/min
Orbital period
105.32 mins
BSTAR
0.00059613
Loading maneuver chart data...
Computing Atmospheric mass density...

Documentation

Showing up to 5 results
|